| time (UTC) | temp C | wind direction | speed KPH | gust KPH | rain 1hr cm | rain 24hr cm | rain mn cm | humidity % | barometer mb |
| 20260504130818 | 13 | 325 | 3.2 | 4.8 | 0.00 | 0.00 | 0.00 | 64 | 1012.2 |
| 20260504130314 | 13 | 226 | 8.0 | 9.7 | 0.00 | 0.00 | 0.00 | 65 | 1012.0 |
| 20260504120237 | 11 | 235 | 8.0 | 9.7 | 0.00 | 0.00 | 0.00 | 66 | 1012.1 |
| 20260504110705 | 9 | 246 | 8.0 | 9.7 | 0.00 | 0.00 | 0.00 | 69 | 1011.9 |
| 20260504110201 | 9 | 220 | 9.7 | 12.9 | 0.00 | 0.00 | 0.00 | 69 | 1011.7 |
| 20260504100125 | 8 | 222 | 11.3 | 12.9 | 0.00 | 0.00 | 0.00 | 71 | 1012.2 |
| 20260504081518 | 8 | 220 | 8.0 | 8.0 | 0.00 | 0.00 | 0.00 | 70 | 1012.9 |
| 20260504081014 | 7 | 238 | 3.2 | 4.8 | 0.00 | 0.00 | 0.00 | 72 | 1013.3 |
| 20260504080510 | 7 | 236 | 3.2 | 4.8 | 0.00 | 0.00 | 0.00 | 73 | 1013.2 |
| 20260504050317 | 6 | 332 | 0.0 | 0.0 | 0.00 | 0.00 | 0.00 | 76 | 1014.7 |
| 20260504045814 | 6 | 332 | 0.0 | 0.0 | 0.00 | 0.00 | 0.00 | 77 | 1014.7 |
| 20260504045314 | 6 | 332 | 0.0 | 0.0 | 0.00 | 0.00 | 0.00 | 76 | 1014.6 |
| 20260504044812 | 6 | 332 | 0.0 | 0.0 | 0.00 | 0.00 | 0.00 | 74 | 1014.7 |
| 20260504044309 | 6 | 332 | 0.0 | 0.0 | 0.00 | 0.00 | 0.00 | 74 | 1014.7 |
| 20260504043806 | 6 | 332 | 0.0 | 0.0 | 0.00 | 0.00 | 0.00 | 76 | 1014.8 |
| 20260504043303 | 6 | 332 | 0.0 | 0.0 | 0.00 | 0.00 | 0.00 | 75 | 1014.9 |
| 20260504042801 | 6 | 332 | 1.6 | 3.2 | 0.00 | 0.00 | 0.00 | 75 | 1014.9 |
| 20260504042257 | 6 | 332 | 3.2 | 4.8 | 0.00 | 0.00 | 0.00 | 74 | 1014.8 |
| 20260504041753 | 6 | 332 | 0.0 | 0.0 | 0.00 | 0.00 | 0.00 | 73 | 1014.9 |
| 20260504041249 | 6 | 303 | 0.0 | 3.2 | 0.00 | 0.00 | 0.00 | 75 | 1014.7 |
| 20260504040745 | 7 | 300 | 3.2 | 3.2 | 0.00 | 0.00 | 0.00 | 71 | 1014.6 |
| 20260504040243 | 7 | 296 | 0.0 | 0.0 | 0.00 | 0.00 | 0.00 | 70 | 1014.8 |
| 20260504035739 | 7 | 297 | 1.6 | 3.2 | 0.00 | 0.00 | 0.00 | 71 | 1014.7 |
| 20260504035236 | 7 | 297 | 0.0 | 3.2 | 0.00 | 0.00 | 0.00 | 70 | 1014.6 |
| 20260504034734 | 6 | 333 | 0.0 | 0.0 | 0.00 | 0.00 | 0.00 | 69 | 1014.6 |
| 20260504034231 | 7 | 333 | 0.0 | 0.0 | 0.00 | 0.00 | 0.00 | 70 | 1014.6 |
| 20260504033729 | 7 | 333 | 0.0 | 0.0 | 0.00 | 0.00 | 0.00 | 70 | 1014.7 |
| 20260504033226 | 7 | 333 | 0.0 | 0.0 | 0.00 | 0.00 | 0.00 | 70 | 1014.5 |
| 20260504032723 | 7 | 333 | 0.0 | 0.0 | 0.00 | 0.00 | 0.00 | 70 | 1014.6 |
| 20260504032220 | 7 | 333 | 0.0 | 0.0 | 0.00 | 0.00 | 0.00 | 71 | 1014.5 |
| 20260504031716 | 7 | 333 | 0.0 | 0.0 | 0.00 | 0.00 | 0.00 | 69 | 1014.6 |
| 20260504031214 | 7 | 333 | 0.0 | 0.0 | 0.00 | 0.00 | 0.00 | 68 | 1015.0 |
| 20260504030709 | 7 | 333 | 0.0 | 0.0 | 0.00 | 0.00 | 0.00 | 66 | 1014.7 |
| 20260504030207 | 7 | 333 | 0.0 | 0.0 | 0.00 | 0.00 | 0.00 | 66 | 1014.5 |
| 20260504025703 | 7 | 333 | 0.0 | 0.0 | 0.00 | 0.00 | 0.00 | 68 | 1014.8 |
| 20260504025200 | 8 | 333 | 0.0 | 0.0 | 0.00 | 0.00 | 0.00 | 68 | 1014.9 |
| 20260504024657 | 8 | 333 | 0.0 | 0.0 | 0.00 | 0.00 | 0.00 | 67 | 1015.0 |
| 20260504024154 | 8 | 333 | 1.6 | 3.2 | 0.00 | 0.00 | 0.00 | 68 | 1015.0 |
| 20260504023650 | 8 | 333 | 0.0 | 0.0 | 0.00 | 0.00 | 0.00 | 66 | 1014.9 |
| 20260504023146 | 8 | 333 | 0.0 | 3.2 | 0.00 | 0.00 | 0.00 | 68 | 1015.0 |
| 20260504022643 | 8 | 333 | 1.6 | 3.2 | 0.00 | 0.00 | 0.00 | 63 | 1014.7 |
| 20260504022138 | 8 | 333 | 1.6 | 3.2 | 0.00 | 0.00 | 0.00 | 66 | 1014.8 |
| 20260504021637 | 8 | 333 | 0.0 | 0.0 | 0.00 | 0.00 | 0.00 | 69 | 1014.9 |
| 20260504021133 | 8 | 333 | 0.0 | 0.0 | 0.00 | 0.00 | 0.00 | 68 | 1014.8 |
| 20260504020631 | 8 | 333 | 0.0 | 0.0 | 0.00 | 0.00 | 0.00 | 67 | 1014.8 |
| 20260504020126 | 8 | 333 | 0.0 | 0.0 | 0.00 | 0.00 | 0.00 | 65 | 1015.0 |
| 20260504015623 | 8 | 333 | 0.0 | 0.0 | 0.00 | 0.00 | 0.00 | 63 | 1015.0 |
| 20260504015119 | 8 | 333 | 0.0 | 0.0 | 0.00 | 0.00 | 0.00 | 64 | 1015.0 |
| 20260504014615 | 8 | 333 | 0.0 | 0.0 | 0.00 | 0.00 | 0.00 | 64 | 1015.0 |
| 20260504014113 | 8 | 333 | 0.0 | 0.0 | 0.00 | 0.00 | 0.00 | 65 | 1014.8 |
| 20260504013610 | 9 | 333 | 0.0 | 0.0 | 0.00 | 0.00 | 0.00 | 62 | 1015.0 |
| 20260504013107 | 9 | 333 | 0.0 | 0.0 | 0.00 | 0.00 | 0.00 | 62 | 1014.8 |
| 20260504012604 | 10 | 333 | 0.0 | 0.0 | 0.00 | 0.00 | 0.00 | 61 | 1014.6 |
| 20260504012102 | 10 | 333 | 1.6 | 3.2 | 0.00 | 0.00 | 0.00 | 62 | 1014.6 |
| 20260504011559 | 10 | 333 | 0.0 | 0.0 | 0.00 | 0.00 | 0.00 | 62 | 1014.8 |
| 20260504011055 | 10 | 333 | 0.0 | 0.0 | 0.00 | 0.00 | 0.00 | 61 | 1014.8 |
| 20260504010550 | 10 | 333 | 0.0 | 0.0 | 0.00 | 0.00 | 0.00 | 60 | 1014.7 |
| 20260504010047 | 10 | 333 | 0.0 | 0.0 | 0.00 | 0.00 | 0.00 | 60 | 1014.5 |
| 20260504005543 | 10 | 333 | 0.0 | 0.0 | 0.00 | 0.00 | 0.00 | 59 | 1014.5 |
| 20260504005041 | 10 | 333 | 0.0 | 0.0 | 0.00 | 0.00 | 0.00 | 58 | 1014.7 |
| 20260504004539 | 11 | 333 | 0.0 | 0.0 | 0.00 | 0.00 | 0.00 | 58 | 1014.6 |
| 20260504004035 | 11 | 333 | 0.0 | 3.2 | 0.00 | 0.00 | 0.00 | 57 | 1014.6 |
| 20260504003532 | 11 | 333 | 0.0 | 0.0 | 0.00 | 0.00 | 0.00 | 56 | 1014.4 |
| 20260504003029 | 11 | 332 | 0.0 | 0.0 | 0.00 | 0.00 | 0.00 | 55 | 1014.5 |
| 20260504002525 | 11 | 332 | 0.0 | 0.0 | 0.00 | 0.00 | 0.00 | 58 | 1014.6 |
| 20260504002023 | 11 | 333 | 0.0 | 0.0 | 0.00 | 0.00 | 0.00 | 55 | 1014.6 |
| 20260504001520 | 11 | 333 | 0.0 | 0.0 | 0.00 | 0.00 | 0.00 | 55 | 1014.6 |
| 20260504001011 | 11 | 333 | 0.0 | 0.0 | 0.00 | 0.00 | 0.00 | 55 | 1014.6 |
| 20260504000509 | 11 | 333 | 1.6 | 3.2 | 0.00 | 0.00 | 0.00 | 55 | 1014.6 |
| 20260504000006 | 11 | 333 | 0.0 | 0.0 | 0.00 | 0.00 | 0.00 | 53 | 1014.7 |
| 20260503235504 | 11 | 333 | 0.0 | 3.2 | 0.00 | 0.00 | 0.00 | 54 | 1014.6 |
| 20260503235001 | 11 | 329 | 1.6 | 3.2 | 0.00 | 0.00 | 0.00 | 52 | 1014.3 |
| 20260503234458 | 11 | 322 | 0.0 | 3.2 | 0.00 | 0.00 | 0.00 | 55 | 1014.5 |
| 20260503233956 | 11 | 303 | 1.6 | 3.2 | 0.00 | 0.00 | 0.00 | 55 | 1014.6 |
| 20260503233452 | 12 | 303 | 1.6 | 4.8 | 0.00 | 0.00 | 0.00 | 50 | 1014.5 |
| 20260503232949 | 12 | 286 | 1.6 | 3.2 | 0.00 | 0.00 | 0.00 | 50 | 1014.4 |
| 20260503232446 | 12 | 260 | 1.6 | 4.8 | 0.00 | 0.00 | 0.00 | 52 | 1014.3 |
| 20260503231944 | 12 | 318 | 1.6 | 3.2 | 0.00 | 0.00 | 0.00 | 53 | 1014.5 |
| 20260503231441 | 12 | 314 | 1.6 | 3.2 | 0.00 | 0.00 | 0.00 | 56 | 1014.5 |
| 20260503230937 | 12 | 314 | 1.6 | 3.2 | 0.00 | 0.00 | 0.00 | 53 | 1014.6 |
| 20260503230434 | 12 | 301 | 3.2 | 3.2 | 0.00 | 0.00 | 0.00 | 53 | 1014.4 |
| 20260503225932 | 13 | 329 | 3.2 | 4.8 | 0.00 | 0.00 | 0.00 | 47 | 1014.4 |
| 20260503225428 | 13 | 325 | 1.6 | 4.8 | 0.00 | 0.00 | 0.00 | 48 | 1014.6 |
| 20260503224924 | 13 | 342 | 1.6 | 3.2 | 0.00 | 0.00 | 0.00 | 52 | 1014.6 |
| 20260503224421 | 13 | 318 | 4.8 | 9.7 | 0.00 | 0.00 | 0.00 | 49 | 1014.4 |
| 20260503223919 | 13 | 314 | 6.4 | 8.0 | 0.00 | 0.00 | 0.00 | 51 | 1014.4 |
| 20260503223416 | 13 | 265 | 8.0 | 9.7 | 0.00 | 0.00 | 0.00 | 48 | 1014.5 |
| 20260503222911 | 13 | 309 | 6.4 | 9.7 | 0.00 | 0.00 | 0.00 | 51 | 1014.6 |
| 20260503222409 | 13 | 297 | 4.8 | 9.7 | 0.00 | 0.00 | 0.00 | 52 | 1014.7 |
| 20260503221907 | 13 | 326 | 4.8 | 8.0 | 0.00 | 0.00 | 0.00 | 45 | 1014.6 |
| 20260503221406 | 13 | 331 | 3.2 | 4.8 | 0.00 | 0.00 | 0.00 | 53 | 1014.6 |
| 20260503220902 | 13 | 304 | 4.8 | 4.8 | 0.00 | 0.00 | 0.00 | 52 | 1014.7 |
| 20260503220358 | 13 | 271 | 4.8 | 8.0 | 0.00 | 0.00 | 0.00 | 50 | 1014.6 |
| 20260503215855 | 13 | 319 | 6.4 | 8.0 | 0.00 | 0.00 | 0.00 | 46 | 1014.5 |
| 20260503215352 | 13 | 314 | 3.2 | 3.2 | 0.00 | 0.00 | 0.00 | 44 | 1014.5 |
| 20260503214850 | 13 | 292 | 6.4 | 9.7 | 0.00 | 0.00 | 0.00 | 49 | 1014.5 |
| 20260503214347 | 13 | 243 | 11.3 | 14.5 | 0.00 | 0.00 | 0.00 | 48 | 1014.6 |
| 20260503213844 | 13 | 6 | 3.2 | 4.8 | 0.00 | 0.00 | 0.00 | 45 | 1014.4 |
| 20260503213342 | 13 | 313 | 4.8 | 8.0 | 0.00 | 0.00 | 0.00 | 49 | 1014.4 |
| 20260503212839 | 13 | 317 | 0.0 | 0.0 | 0.00 | 0.00 | 0.00 | 46 | 1014.5 |
| 20260503212337 | 14 | 311 | 3.2 | 4.8 | 0.00 | 0.00 | 0.00 | 48 | 1014.3 |
| 20260503211834 | 13 | 337 | 4.8 | 8.0 | 0.00 | 0.00 | 0.00 | 44 | 1014.1 |
| 20260503211330 | 13 | 321 | 3.2 | 4.8 | 0.00 | 0.00 | 0.00 | 43 | 1014.4 |
| 20260503210825 | 13 | 313 | 3.2 | 4.8 | 0.00 | 0.00 | 0.00 | 43 | 1014.5 |
| 20260503210323 | 13 | 338 | 1.6 | 3.2 | 0.00 | 0.00 | 0.00 | 47 | 1014.6 |
| 20260503205818 | 14 | 304 | 4.8 | 8.0 | 0.00 | 0.00 | 0.00 | 43 | 1014.6 |
| 20260503205315 | 13 | 323 | 4.8 | 4.8 | 0.00 | 0.00 | 0.00 | 43 | 1014.6 |
| 20260503204811 | 14 | 263 | 4.8 | 8.0 | 0.00 | 0.00 | 0.00 | 43 | 1014.6 |
| 20260503204309 | 15 | 305 | 0.0 | 3.2 | 0.00 | 0.00 | 0.00 | 45 | 1014.5 |
| 20260503203805 | 15 | 318 | 3.2 | 4.8 | 0.00 | 0.00 | 0.00 | 45 | 1014.7 |
| 20260503203302 | 15 | 290 | 4.8 | 8.0 | 0.00 | 0.00 | 0.00 | 43 | 1014.7 |
| 20260503202754 | 13 | 305 | 8.0 | 12.9 | 0.00 | 0.00 | 0.00 | 43 | 1014.8 |
| 20260503202252 | 14 | 308 | 6.4 | 8.0 | 0.00 | 0.00 | 0.00 | 47 | 1014.9 |
| 20260503201750 | 13 | 336 | 3.2 | 4.8 | 0.00 | 0.00 | 0.00 | 50 | 1014.9 |
| 20260503201247 | 13 | 334 | 4.8 | 4.8 | 0.00 | 0.00 | 0.00 | 47 | 1015.0 |
| 20260503200744 | 14 | 351 | 0.0 | 3.2 | 0.00 | 0.00 | 0.00 | 42 | 1015.0 |
| 20260503200240 | 14 | 314 | 3.2 | 4.8 | 0.00 | 0.00 | 0.00 | 44 | 1015.1 |
| 20260503195737 | 13 | 313 | 1.6 | 4.8 | 0.00 | 0.00 | 0.00 | 43 | 1015.2 |
| 20260503195234 | 14 | 317 | 4.8 | 8.0 | 0.00 | 0.00 | 0.00 | 45 | 1015.5 |
| 20260503194732 | 15 | 304 | 4.8 | 8.0 | 0.00 | 0.00 | 0.00 | 48 | 1015.4 |
| 20260503194227 | 13 | 327 | 3.2 | 4.8 | 0.00 | 0.00 | 0.00 | 47 | 1015.5 |
| 20260503193723 | 13 | 313 | 6.4 | 8.0 | 0.00 | 0.00 | 0.00 | 43 | 1015.5 |
| 20260503193220 | 14 | 208 | 4.8 | 8.0 | 0.00 | 0.00 | 0.00 | 48 | 1015.5 |
| 20260503192715 | 14 | 325 | 3.2 | 4.8 | 0.00 | 0.00 | 0.00 | 49 | 1015.7 |
| 20260503192211 | 14 | 314 | 1.6 | 4.8 | 0.00 | 0.00 | 0.00 | 43 | 1015.8 |
| 20260503191708 | 13 | 328 | 3.2 | 4.8 | 0.00 | 0.00 | 0.00 | 43 | 1016.0 |
| 20260503191205 | 15 | 302 | 3.2 | 4.8 | 0.00 | 0.00 | 0.00 | 44 | 1015.8 |
| 20260503190702 | 15 | 357 | 9.7 | 12.9 | 0.00 | 0.00 | 0.00 | 48 | 1015.9 |
| 20260503190158 | 14 | 345 | 1.6 | 3.2 | 0.00 | 0.00 | 0.00 | 50 | 1016.1 |
| 20260503185655 | 13 | 325 | 3.2 | 4.8 | 0.00 | 0.00 | 0.00 | 45 | 1016.1 |
| 20260503185150 | 13 | 339 | 4.8 | 8.0 | 0.00 | 0.00 | 0.00 | 50 | 1016.0 |
| 20260503184646 | 13 | 345 | 3.2 | 3.2 | 0.00 | 0.00 | 0.00 | 47 | 1016.3 |
| 20260503184142 | 13 | 324 | 4.8 | 8.0 | 0.00 | 0.00 | 0.00 | 49 | 1016.2 |
| 20260503183638 | 13 | 327 | 3.2 | 4.8 | 0.00 | 0.00 | 0.00 | 50 | 1016.5 |
| 20260503183136 | 13 | 317 | 3.2 | 4.8 | 0.00 | 0.00 | 0.00 | 46 | 1016.2 |
| 20260503182634 | 13 | 196 | 11.3 | 17.7 | 0.00 | 0.00 | 0.00 | 52 | 1016.2 |
| 20260503182132 | 13 | 335 | 4.8 | 4.8 | 0.00 | 0.00 | 0.00 | 50 | 1016.5 |
| 20260503181629 | 13 | 146 | 1.6 | 4.8 | 0.00 | 0.00 | 0.00 | 46 | 1016.5 |
| 20260503181126 | 12 | 325 | 3.2 | 4.8 | 0.00 | 0.00 | 0.00 | 47 | 1016.4 |
| 20260503180623 | 13 | 211 | 4.8 | 8.0 | 0.00 | 0.00 | 0.00 | 51 | 1016.8 |
| 20260503180121 | 14 | 298 | 4.8 | 4.8 | 0.00 | 0.00 | 0.00 | 47 | 1016.5 |
| 20260503175617 | 13 | 340 | 3.2 | 4.8 | 0.00 | 0.00 | 0.00 | 51 | 1016.6 |
| 20260503175114 | 13 | 305 | 6.4 | 8.0 | 0.00 | 0.00 | 0.00 | 49 | 1016.8 |
| 20260503174611 | 12 | 332 | 3.2 | 4.8 | 0.00 | 0.00 | 0.00 | 58 | 1016.9 |
| 20260503174108 | 13 | 342 | 6.4 | 8.0 | 0.00 | 0.00 | 0.00 | 45 | 1016.8 |
| 20260503173603 | 13 | 292 | 4.8 | 8.0 | 0.00 | 0.00 | 0.00 | 53 | 1016.9 |
| 20260503173100 | 13 | 332 | 1.6 | 4.8 | 0.00 | 0.00 | 0.00 | 53 | 1017.0 |
| 20260503172557 | 12 | 298 | 1.6 | 3.2 | 0.00 | 0.00 | 0.00 | 48 | 1017.2 |
| 20260503172054 | 13 | 328 | 3.2 | 4.8 | 0.00 | 0.00 | 0.00 | 46 | 1016.8 |
| 20260503171550 | 13 | 335 | 3.2 | 4.8 | 0.00 | 0.00 | 0.00 | 47 | 1017.0 |
| 20260503171048 | 12 | 339 | 1.6 | 4.8 | 0.00 | 0.00 | 0.00 | 49 | 1017.2 |
| 20260503170544 | 12 | 319 | 6.4 | 8.0 | 0.00 | 0.00 | 0.00 | 53 | 1017.0 |
| 20260503150931 | 10 | 303 | 3.2 | 4.8 | 0.00 | 0.00 | 0.00 | 50 | 1018.0 |
| 20260503150427 | 10 | 331 | 4.8 | 4.8 | 0.00 | 0.00 | 0.00 | 52 | 1018.0 |